DAL1748 KBOS-KDTW

Flight info

Callsign DAL1748
Flight time 1h 55m
Altitude 36000
Route HYLND7 HYLND DCT CAM Q822 GONZZ DCT DONEO TPGUN2
Aircraft A321/M-SDE3FGHIRWY/LB1

Departure

Time 2026-05-07 09:55
Airport Boston Logan International Airport (KBOS)

Arrival

Time 2026-05-07 11:50
Airport Detroit Metropolitan Wayne County Airport (KDTW)
Time Latitude Longitude Altitude Speed Heading
2026-05-07 09:18 42.36330 -71.02122 26 ft 0 kts 17°
2026-05-07 09:41 42.36319 -71.02127 31 ft 4 kts 17°
2026-05-07 09:41 42.36297 -71.02136 28 ft 4 kts
2026-05-07 09:42 42.36283 -71.02133 30 ft 4 kts 273°
2026-05-07 09:42 42.36282 -71.02125 26 ft 4 kts 252°
2026-05-07 09:42 42.36277 -71.02160 30 ft 4 kts 271°
2026-05-07 09:42 42.36287 -71.02189 27 ft 2 kts 302°
2026-05-07 09:43 42.36300 -71.02217 27 ft 4 kts 302°
2026-05-07 09:43 42.36309 -71.02237 27 ft 0 kts 302°
2026-05-07 09:46 42.36323 -71.02273 31 ft 9 kts 289°
2026-05-07 09:46 42.36290 -71.02334 27 ft 10 kts 204°
2026-05-07 09:46 42.36181 -71.02349 26 ft 18 kts 184°
2026-05-07 09:47 42.36087 -71.02322 29 ft 11 kts 148°
2026-05-07 09:47 42.36032 -71.02256 28 ft 14 kts 123°
2026-05-07 09:47 42.35979 -71.02137 28 ft 13 kts 121°
2026-05-07 09:47 42.35938 -71.02044 29 ft 10 kts 121°
2026-05-07 09:48 42.35910 -71.01980 28 ft 7 kts 120°
2026-05-07 09:48 42.35865 -71.01871 28 ft 19 kts 114°
2026-05-07 09:48 42.35837 -71.01710 26 ft 15 kts 90°
2026-05-07 09:48 42.35887 -71.01652 28 ft 9 kts 20°
2026-05-07 09:49 42.35994 -71.01598 28 ft 22 kts 20°
2026-05-07 09:49 42.36134 -71.01530 26 ft 20 kts 19°
2026-05-07 09:49 42.36255 -71.01472 28 ft 17 kts 19°
2026-05-07 09:49 42.36351 -71.01422 28 ft 11 kts 33°
2026-05-07 09:50 42.36356 -71.01361 27 ft 6 kts 115°
2026-05-07 09:50 42.36308 -71.01254 28 ft 21 kts 122°
2026-05-07 09:50 42.36236 -71.01073 26 ft 21 kts 114°
2026-05-07 09:50 42.36183 -71.00911 27 ft 17 kts 114°
2026-05-07 09:51 42.36139 -71.00780 27 ft 14 kts 114°
2026-05-07 09:51 42.36104 -71.00655 27 ft 19 kts 109°
2026-05-07 09:51 42.36053 -71.00450 28 ft 23 kts 109°
2026-05-07 09:51 42.36004 -71.00259 28 ft 20 kts 109°
2026-05-07 09:52 42.35963 -71.00097 28 ft 16 kts 109°
2026-05-07 09:52 42.35955 -70.99960 26 ft 15 kts 84°
2026-05-07 09:52 42.35991 -70.99761 28 ft 26 kts 75°
2026-05-07 09:52 42.36030 -70.99534 26 ft 23 kts 76°
2026-05-07 09:53 42.36065 -70.99339 30 ft 20 kts 77°
2026-05-07 09:53 42.36095 -70.99171 26 ft 17 kts 77°
2026-05-07 09:53 42.36131 -70.98970 26 ft 23 kts 76°
2026-05-07 09:53 42.36119 -70.98852 26 ft 8 kts 145°
2026-05-07 09:54 42.36043 -70.98826 27 ft 12 kts 172°
2026-05-07 09:54 42.36006 -70.98869 28 ft 7 kts 257°
2026-05-07 09:54 42.36006 -70.98873 26 ft 0 kts 257°
2026-05-07 09:54 42.35968 -70.99086 26 ft 62 kts 257°
2026-05-07 09:55 42.35876 -70.99605 26 ft 108 kts 257°
2026-05-07 09:55 42.35657 -71.00846 92 ft 155 kts 258°
2026-05-07 09:55 42.35431 -71.02260 806 ft 154 kts 255°
2026-05-07 09:55 42.34884 -71.03573 1392 ft 170 kts 232°
2026-05-07 09:56 42.33955 -71.04692 1725 ft 191 kts 226°
2026-05-07 09:56 42.32902 -71.05990 1989 ft 218 kts 227°
2026-05-07 09:56 42.31721 -71.07488 2423 ft 246 kts 227°
2026-05-07 09:56 42.30441 -71.09138 3227 ft 259 kts 226°
2026-05-07 09:57 42.29142 -71.10799 4383 ft 256 kts 226°
2026-05-07 09:57 42.27882 -71.12483 5512 ft 253 kts 235°
2026-05-07 09:57 42.27332 -71.14666 6573 ft 250 kts 268°
2026-05-07 09:57 42.27653 -71.16967 7635 ft 249 kts 281°
2026-05-07 09:58 42.28106 -71.19220 8700 ft 247 kts 278°
2026-05-07 09:58 42.28735 -71.21401 9718 ft 259 kts 298°
2026-05-07 09:58 42.30243 -71.22907 10582 ft 290 kts 329°
2026-05-07 09:58 42.32280 -71.23682 11003 ft 315 kts 332°
2026-05-07 09:59 42.34358 -71.24806 11291 ft 333 kts 329°
2026-05-07 09:59 42.36610 -71.25810 11897 ft 349 kts 335°
2026-05-07 09:59 42.39112 -71.26180 12619 ft 376 kts 354°
2026-05-07 09:59 42.41722 -71.25940 13362 ft 383 kts 353°
2026-05-07 10:00 42.44401 -71.25878 14017 ft 387 kts 350°
2026-05-07 10:00 42.47158 -71.25827 14700 ft 397 kts 354°
2026-05-07 10:00 42.49862 -71.25852 15374 ft 389 kts 342°
2026-05-07 10:00 42.52548 -71.26330 16093 ft 393 kts 342°
2026-05-07 10:01 42.55302 -71.26668 16836 ft 400 kts 345°
2026-05-07 10:01 42.58110 -71.26872 17572 ft 406 kts 347°
2026-05-07 10:01 42.60953 -71.26992 18264 ft 412 kts 348°
2026-05-07 10:01 42.63834 -71.27062 18887 ft 416 kts 348°
2026-05-07 10:02 42.66737 -71.27123 19508 ft 419 kts 348°
2026-05-07 10:02 42.69661 -71.27206 20165 ft 420 kts 345°
2026-05-07 10:02 42.72466 -71.27870 20741 ft 399 kts 328°
2026-05-07 10:02 42.74960 -71.29340 21344 ft 383 kts 316°
2026-05-07 10:03 42.76915 -71.31568 21945 ft 356 kts 297°
2026-05-07 10:03 42.78236 -71.34307 22569 ft 340 kts 285°
2026-05-07 10:03 42.79067 -71.37260 23216 ft 330 kts 276°
2026-05-07 10:03 42.79488 -71.40294 23775 ft 325 kts 270°
2026-05-07 10:04 42.79829 -71.43337 24320 ft 326 kts 271°
2026-05-07 10:04 42.80176 -71.46384 24904 ft 326 kts 271°
2026-05-07 10:04 42.80520 -71.49428 25458 ft 325 kts 271°
2026-05-07 10:04 42.80869 -71.52470 26019 ft 326 kts 271°
2026-05-07 10:05 42.81225 -71.55518 26549 ft 326 kts 271°
2026-05-07 10:05 42.81561 -71.58564 27172 ft 324 kts 270°
2026-05-07 10:05 42.81886 -71.61597 27758 ft 323 kts 270°
2026-05-07 10:05 42.82209 -71.64625 28307 ft 323 kts 270°
2026-05-07 10:06 42.82531 -71.67615 28824 ft 323 kts 270°
2026-05-07 10:06 42.82858 -71.70644 29323 ft 324 kts 270°
2026-05-07 10:06 42.83186 -71.73682 29799 ft 324 kts 270°
2026-05-07 10:06 42.83515 -71.76720 30199 ft 325 kts 270°
2026-05-07 10:07 42.83844 -71.79767 30579 ft 326 kts 271°
2026-05-07 10:07 42.84174 -71.82831 30964 ft 327 kts 271°
2026-05-07 10:07 42.84502 -71.85883 31482 ft 324 kts 271°
2026-05-07 10:07 42.84828 -71.88905 32017 ft 321 kts 271°
2026-05-07 10:08 42.85152 -71.91908 32625 ft 319 kts 271°
2026-05-07 10:08 42.85473 -71.94880 33203 ft 316 kts 271°
2026-05-07 10:08 42.85787 -71.97831 33766 ft 313 kts 271°
2026-05-07 10:08 42.86096 -72.00752 34219 ft 311 kts 271°
2026-05-07 10:09 42.86401 -72.03671 34581 ft 311 kts 271°
2026-05-07 10:09 42.86705 -72.06592 34898 ft 312 kts 271°
2026-05-07 10:09 42.87006 -72.09483 35211 ft 313 kts 271°
2026-05-07 10:09 42.87313 -72.12419 35543 ft 314 kts 271°
2026-05-07 10:10 42.87623 -72.15370 35790 ft 316 kts 271°
2026-05-07 10:10 42.88242 -72.21269 35878 ft 312 kts 271°
2026-05-07 10:11 42.88850 -72.27106 35920 ft 311 kts 271°
2026-05-07 10:11 42.89452 -72.32974 35869 ft 313 kts 271°
2026-05-07 10:12 42.90057 -72.38862 35869 ft 314 kts 271°
2026-05-07 10:12 42.90661 -72.44749 35872 ft 314 kts 271°
2026-05-07 10:13 42.91259 -72.50643 35874 ft 313 kts 271°
2026-05-07 10:13 42.91852 -72.56534 35876 ft 313 kts 271°
2026-05-07 10:14 42.92438 -72.62380 35902 ft 313 kts 271°
2026-05-07 10:14 42.93025 -72.68286 35887 ft 315 kts 271°
2026-05-07 10:15 42.93615 -72.74210 35886 ft 315 kts 271°
2026-05-07 10:15 42.94205 -72.80138 35885 ft 315 kts 271°
2026-05-07 10:16 42.94788 -72.86065 35883 ft 316 kts 271°
2026-05-07 10:16 42.95375 -72.92015 35881 ft 315 kts 271°
2026-05-07 10:17 42.95948 -72.97950 35902 ft 315 kts 271°
2026-05-07 10:17 42.96516 -73.03934 35879 ft 320 kts 271°
2026-05-07 10:18 42.97105 -73.09975 35873 ft 322 kts 271°
2026-05-07 10:18 42.97687 -73.16015 35871 ft 324 kts 271°
2026-05-07 10:19 42.98267 -73.22116 35875 ft 324 kts 271°
2026-05-07 10:19 42.98837 -73.28194 35874 ft 321 kts 271°
2026-05-07 10:20 42.99397 -73.34246 35918 ft 318 kts 270°
2026-05-07 10:20 42.99582 -73.40252 35909 ft 316 kts 268°
2026-05-07 10:21 42.99734 -73.46245 35905 ft 316 kts 267°
2026-05-07 10:21 42.99880 -73.52246 35906 ft 316 kts 267°
2026-05-07 10:22 43.00021 -73.58250 35909 ft 316 kts 267°
2026-05-07 10:22 43.00157 -73.64249 35906 ft 316 kts 267°
2026-05-07 10:23 43.00294 -73.70262 35939 ft 317 kts 267°
2026-05-07 10:23 43.00429 -73.76291 35925 ft 318 kts 267°
2026-05-07 10:24 43.00558 -73.82326 35924 ft 318 kts 267°
2026-05-07 10:24 43.00688 -73.88371 35925 ft 318 kts 267°
2026-05-07 10:25 43.00809 -73.94416 35932 ft 318 kts 267°
2026-05-07 10:25 43.00931 -74.00429 35937 ft 318 kts 267°
2026-05-07 10:26 43.01051 -74.06492 35928 ft 320 kts 267°
2026-05-07 10:26 43.01172 -74.12590 35922 ft 322 kts 267°
2026-05-07 10:27 43.01283 -74.18709 35918 ft 323 kts 267°
2026-05-07 10:27 43.01391 -74.24847 35924 ft 323 kts 267°
2026-05-07 10:28 43.01605 -74.30992 35928 ft 325 kts 269°
2026-05-07 10:28 43.01914 -74.37154 35967 ft 325 kts 269°
2026-05-07 10:29 43.02211 -74.43339 35939 ft 327 kts 269°
2026-05-07 10:29 43.02492 -74.49556 35932 ft 329 kts 269°
2026-05-07 10:30 43.02902 -74.58890 35935 ft 330 kts 269°
2026-05-07 10:30 43.03170 -74.65149 35942 ft 330 kts 269°
2026-05-07 10:31 43.03446 -74.71413 35948 ft 331 kts 269°
2026-05-07 10:31 43.03710 -74.77689 35949 ft 330 kts 269°
2026-05-07 10:32 43.03967 -74.83963 35953 ft 331 kts 269°
2026-05-07 10:32 43.04219 -74.90242 35954 ft 331 kts 268°
2026-05-07 10:33 43.04467 -74.96520 35955 ft 331 kts 268°
2026-05-07 10:33 43.04716 -75.02797 35956 ft 331 kts 268°
2026-05-07 10:34 43.04960 -75.09087 36001 ft 333 kts 269°
2026-05-07 10:34 43.05204 -75.15405 35960 ft 332 kts 269°
2026-05-07 10:35 43.05448 -75.21706 35971 ft 331 kts 269°
2026-05-07 10:35 43.05683 -75.27983 35973 ft 330 kts 269°
2026-05-07 10:36 43.05891 -75.34249 35972 ft 330 kts 268°
2026-05-07 10:36 43.06058 -75.40516 35971 ft 329 kts 268°
2026-05-07 10:37 43.06224 -75.46735 35991 ft 330 kts 268°
2026-05-07 10:37 43.06398 -75.53015 35973 ft 331 kts 268°
2026-05-07 10:38 43.06570 -75.59305 35966 ft 331 kts 268°
2026-05-07 10:38 43.06732 -75.65608 35963 ft 332 kts 268°
2026-05-07 10:39 43.06898 -75.71917 35964 ft 332 kts 268°
2026-05-07 10:39 43.07054 -75.78230 35965 ft 332 kts 268°
2026-05-07 10:40 43.07207 -75.84553 35975 ft 334 kts 268°
2026-05-07 10:40 43.07364 -75.90872 35965 ft 335 kts 268°
2026-05-07 10:41 43.07512 -75.97243 35966 ft 336 kts 268°
2026-05-07 10:41 43.07654 -76.03629 35965 ft 336 kts 268°
2026-05-07 10:42 43.07799 -76.10028 35966 ft 337 kts 268°
2026-05-07 10:42 43.07938 -76.16433 35999 ft 337 kts 268°
2026-05-07 10:43 43.08074 -76.22861 35982 ft 338 kts 268°
2026-05-07 10:43 43.08208 -76.29255 35974 ft 339 kts 268°
2026-05-07 10:44 43.08339 -76.35707 35971 ft 339 kts 268°
2026-05-07 10:44 43.08465 -76.42157 35973 ft 339 kts 268°
2026-05-07 10:45 43.08585 -76.48621 35972 ft 340 kts 267°
2026-05-07 10:45 43.08703 -76.55090 35997 ft 340 kts 268°
2026-05-07 10:46 43.08821 -76.61565 35986 ft 341 kts 268°
2026-05-07 10:46 43.08928 -76.68015 35979 ft 341 kts 266°
2026-05-07 10:47 43.08444 -76.74437 35978 ft 339 kts 261°
2026-05-07 10:47 43.07884 -76.80846 35977 ft 339 kts 261°
2026-05-07 10:48 43.07325 -76.87256 35962 ft 340 kts 261°
2026-05-07 10:48 43.06761 -76.93661 35986 ft 339 kts 261°
2026-05-07 10:49 43.06286 -76.98972 35995 ft 338 kts 261°
2026-05-07 10:49 43.05613 -77.06375 35997 ft 337 kts 261°
2026-05-07 10:50 43.05039 -77.12738 35997 ft 337 kts 261°
2026-05-07 10:50 43.04465 -77.19095 35978 ft 337 kts 261°
2026-05-07 10:51 43.03980 -77.24381 36014 ft 337 kts 261°
2026-05-07 10:51 43.03395 -77.30745 36000 ft 337 kts 261°
2026-05-07 10:52 43.02813 -77.37107 35994 ft 338 kts 261°
2026-05-07 10:52 43.02225 -77.43474 35990 ft 338 kts 261°
2026-05-07 10:53 43.01626 -77.49838 35985 ft 338 kts 261°
2026-05-07 10:53 43.01029 -77.56203 35982 ft 338 kts 261°
2026-05-07 10:54 43.00427 -77.62567 36011 ft 338 kts 261°
2026-05-07 10:54 42.99816 -77.68951 35991 ft 339 kts 261°
2026-05-07 10:55 42.99204 -77.75306 35983 ft 340 kts 261°
2026-05-07 10:55 42.98589 -77.81707 35983 ft 340 kts 261°
2026-05-07 10:56 42.97972 -77.88111 35950 ft 339 kts 261°
2026-05-07 10:56 42.97352 -77.94482 35969 ft 338 kts 261°
2026-05-07 10:57 42.96727 -78.00849 35994 ft 338 kts 261°
2026-05-07 10:57 42.96093 -78.07221 35987 ft 339 kts 261°
2026-05-07 10:58 42.95458 -78.13597 35983 ft 339 kts 261°
2026-05-07 10:58 42.94825 -78.19924 35982 ft 339 kts 261°
2026-05-07 10:59 42.94187 -78.26304 35982 ft 339 kts 261°
2026-05-07 10:59 42.93543 -78.32679 35983 ft 339 kts 261°
2026-05-07 11:00 42.92897 -78.39057 35984 ft 339 kts 261°
2026-05-07 11:00 42.92243 -78.45428 35984 ft 339 kts 261°
2026-05-07 11:01 42.91590 -78.51789 35983 ft 339 kts 261°
2026-05-07 11:01 42.90932 -78.58164 35982 ft 339 kts 261°
2026-05-07 11:02 42.90272 -78.64536 35981 ft 339 kts 261°
2026-05-07 11:02 42.89617 -78.70906 35995 ft 339 kts 261°
2026-05-07 11:03 42.88947 -78.77240 35985 ft 340 kts 261°
2026-05-07 11:03 42.88265 -78.83622 35938 ft 340 kts 261°
2026-05-07 11:04 42.87569 -78.89938 35962 ft 335 kts 261°
2026-05-07 11:04 42.86892 -78.96248 35972 ft 337 kts 261°
2026-05-07 11:05 42.86222 -79.02569 35981 ft 337 kts 261°
2026-05-07 11:05 42.85543 -79.08882 36005 ft 336 kts 261°
2026-05-07 11:06 42.84860 -79.15182 35992 ft 336 kts 261°
2026-05-07 11:06 42.84175 -79.21484 35986 ft 336 kts 261°
2026-05-07 11:07 42.83488 -79.27797 35983 ft 336 kts 261°
2026-05-07 11:07 42.82801 -79.34053 35978 ft 336 kts 261°
2026-05-07 11:08 42.82105 -79.40347 35980 ft 336 kts 260°
2026-05-07 11:08 42.81406 -79.46654 35997 ft 337 kts 261°
2026-05-07 11:09 42.80701 -79.52962 35977 ft 337 kts 260°
2026-05-07 11:09 42.79987 -79.59284 35976 ft 338 kts 260°
2026-05-07 11:10 42.79272 -79.65612 35970 ft 338 kts 260°
2026-05-07 11:10 42.78556 -79.71949 35970 ft 339 kts 260°
2026-05-07 11:11 42.77947 -79.78272 35975 ft 339 kts 262°
2026-05-07 11:11 42.77448 -79.84663 35949 ft 340 kts 262°
2026-05-07 11:12 42.76940 -79.91055 35979 ft 339 kts 262°
2026-05-07 11:12 42.76404 -79.97426 35987 ft 339 kts 262°
2026-05-07 11:13 42.75886 -80.03798 35994 ft 339 kts 262°
2026-05-07 11:13 42.75351 -80.10159 35994 ft 338 kts 262°
2026-05-07 11:14 42.74793 -80.16518 35988 ft 338 kts 262°
2026-05-07 11:14 42.74234 -80.22874 36001 ft 339 kts 262°
2026-05-07 11:15 42.73672 -80.29247 35988 ft 339 kts 262°
2026-05-07 11:15 42.73118 -80.35577 35986 ft 340 kts 262°
2026-05-07 11:16 42.72682 -80.41983 35989 ft 340 kts 264°
2026-05-07 11:16 42.72444 -80.48414 35988 ft 341 kts 265°
2026-05-07 11:17 42.72216 -80.54845 36016 ft 341 kts 265°
2026-05-07 11:17 42.71947 -80.61292 36000 ft 342 kts 264°
2026-05-07 11:18 42.71654 -80.67743 35989 ft 342 kts 264°
2026-05-07 11:18 42.71359 -80.74207 35987 ft 342 kts 264°
2026-05-07 11:19 42.71068 -80.80671 35988 ft 343 kts 264°
2026-05-07 11:19 42.70775 -80.87145 35988 ft 343 kts 264°
2026-05-07 11:20 42.70475 -80.93615 35983 ft 344 kts 264°
2026-05-07 11:20 42.70320 -80.96901 35410 ft 351 kts 264°
2026-05-07 11:20 42.70164 -81.00190 34936 ft 347 kts 264°
2026-05-07 11:21 42.70010 -81.03443 34503 ft 342 kts 264°
2026-05-07 11:21 42.69861 -81.06597 34073 ft 337 kts 264°
2026-05-07 11:21 42.69711 -81.09753 33582 ft 332 kts 264°
2026-05-07 11:21 42.69560 -81.12863 33136 ft 327 kts 264°
2026-05-07 11:22 42.69411 -81.15916 32693 ft 321 kts 264°
2026-05-07 11:22 42.69265 -81.18916 32267 ft 315 kts 264°
2026-05-07 11:22 42.69121 -81.21864 31855 ft 310 kts 264°
2026-05-07 11:22 42.68976 -81.24773 31429 ft 306 kts 264°
2026-05-07 11:23 42.68831 -81.27626 31007 ft 301 kts 264°
2026-05-07 11:23 42.68686 -81.30446 30610 ft 297 kts 264°
2026-05-07 11:23 42.68544 -81.33225 30207 ft 293 kts 264°
2026-05-07 11:23 42.68394 -81.35980 29633 ft 291 kts 263°
2026-05-07 11:24 42.68190 -81.38699 29135 ft 287 kts 262°
2026-05-07 11:24 42.67958 -81.41378 28662 ft 284 kts 262°
2026-05-07 11:24 42.67718 -81.44032 28197 ft 282 kts 262°
2026-05-07 11:24 42.67481 -81.46660 27743 ft 280 kts 262°
2026-05-07 11:25 42.67248 -81.49278 27280 ft 278 kts 262°
2026-05-07 11:25 42.67020 -81.51880 26845 ft 277 kts 262°
2026-05-07 11:25 42.66795 -81.54470 26409 ft 275 kts 262°
2026-05-07 11:25 42.66575 -81.57042 25988 ft 274 kts 262°
2026-05-07 11:26 42.66356 -81.59601 25576 ft 272 kts 262°
2026-05-07 11:26 42.66135 -81.62152 25156 ft 271 kts 262°
2026-05-07 11:26 42.65914 -81.64687 24764 ft 270 kts 262°
2026-05-07 11:26 42.65696 -81.67216 24373 ft 270 kts 262°
2026-05-07 11:27 42.65481 -81.69725 23972 ft 271 kts 263°
2026-05-07 11:27 42.65255 -81.72261 23568 ft 270 kts 263°
2026-05-07 11:27 42.65022 -81.74796 23102 ft 270 kts 263°
2026-05-07 11:27 42.64798 -81.77334 22689 ft 270 kts 263°
2026-05-07 11:28 42.64578 -81.79864 22298 ft 270 kts 263°
2026-05-07 11:28 42.64357 -81.82392 21898 ft 269 kts 263°
2026-05-07 11:28 42.64138 -81.84917 21493 ft 269 kts 263°
2026-05-07 11:28 42.63920 -81.87441 21081 ft 269 kts 263°
2026-05-07 11:29 42.63700 -81.89965 20667 ft 269 kts 263°
2026-05-07 11:29 42.63478 -81.92480 20255 ft 269 kts 263°
2026-05-07 11:29 42.63251 -81.95001 19838 ft 268 kts 263°
2026-05-07 11:29 42.63025 -81.97517 19423 ft 268 kts 264°
2026-05-07 11:30 42.62799 -82.00035 19009 ft 268 kts 264°
2026-05-07 11:30 42.62572 -82.02552 18598 ft 268 kts 264°
2026-05-07 11:30 42.62347 -82.05068 18170 ft 268 kts 264°
2026-05-07 11:30 42.62122 -82.07582 17729 ft 268 kts 264°
2026-05-07 11:31 42.61894 -82.10092 17340 ft 268 kts 264°
2026-05-07 11:31 42.61668 -82.12599 16931 ft 267 kts 264°
2026-05-07 11:31 42.61441 -82.15095 16532 ft 266 kts 264°
2026-05-07 11:31 42.61212 -82.17586 16132 ft 265 kts 264°
2026-05-07 11:32 42.60757 -82.22514 15358 ft 264 kts 264°
2026-05-07 11:32 42.60529 -82.24982 14968 ft 263 kts 264°
2026-05-07 11:32 42.60302 -82.27439 14584 ft 263 kts 264°
2026-05-07 11:33 42.60074 -82.29898 14191 ft 262 kts 264°
2026-05-07 11:33 42.59846 -82.32348 13815 ft 261 kts 264°
2026-05-07 11:33 42.59621 -82.34788 13377 ft 261 kts 264°
2026-05-07 11:33 42.59395 -82.37229 12973 ft 260 kts 264°
2026-05-07 11:34 42.59169 -82.39661 12581 ft 260 kts 264°
2026-05-07 11:34 42.58857 -82.42077 12177 ft 261 kts 257°
2026-05-07 11:34 42.58228 -82.44397 11774 ft 263 kts 250°
2026-05-07 11:34 42.57521 -82.46680 11367 ft 262 kts 250°
2026-05-07 11:35 42.56814 -82.48958 10965 ft 262 kts 250°
2026-05-07 11:35 42.56107 -82.51235 10545 ft 262 kts 250°
2026-05-07 11:35 42.55413 -82.53477 10241 ft 258 kts 250°
2026-05-07 11:35 42.54710 -82.55756 10178 ft 260 kts 250°
2026-05-07 11:36 42.54012 -82.58023 10075 ft 261 kts 250°
2026-05-07 11:36 42.53310 -82.60292 9961 ft 261 kts 250°
2026-05-07 11:36 42.52605 -82.62567 9504 ft 262 kts 250°
2026-05-07 11:36 42.51911 -82.64799 9089 ft 259 kts 249°
2026-05-07 11:37 42.51213 -82.67042 8700 ft 257 kts 249°
2026-05-07 11:37 42.50519 -82.69271 8308 ft 256 kts 249°
2026-05-07 11:37 42.49818 -82.71482 7915 ft 255 kts 249°
2026-05-07 11:37 42.49117 -82.73686 7516 ft 254 kts 250°
2026-05-07 11:38 42.48710 -82.75989 7129 ft 251 kts 266°
2026-05-07 11:38 42.48833 -82.78319 6959 ft 247 kts 282°
2026-05-07 11:38 42.49412 -82.80424 6969 ft 231 kts 296°
2026-05-07 11:38 42.50162 -82.82261 6969 ft 215 kts 296°
2026-05-07 11:39 42.50852 -82.83976 6967 ft 203 kts 296°
2026-05-07 11:39 42.51524 -82.85652 6967 ft 202 kts 296°
2026-05-07 11:39 42.52192 -82.87318 6975 ft 201 kts 296°
2026-05-07 11:39 42.52867 -82.89000 6976 ft 207 kts 296°
2026-05-07 11:40 42.53562 -82.90737 6970 ft 211 kts 296°
2026-05-07 11:40 42.54263 -82.92489 6976 ft 212 kts 296°
2026-05-07 11:40 42.54967 -82.94248 6892 ft 214 kts 296°
2026-05-07 11:40 42.55682 -82.96032 6560 ft 215 kts 296°
2026-05-07 11:41 42.56398 -82.97814 6242 ft 215 kts 296°
2026-05-07 11:41 42.57091 -82.99606 5932 ft 213 kts 290°
2026-05-07 11:41 42.57418 -83.01543 5675 ft 210 kts 272°
2026-05-07 11:41 42.57357 -83.03518 5382 ft 209 kts 267°
2026-05-07 11:42 42.57121 -83.05452 5098 ft 208 kts 251°
2026-05-07 11:42 42.56397 -83.07136 5000 ft 209 kts 231°
2026-05-07 11:42 42.55291 -83.08452 5005 ft 213 kts 221°
2026-05-07 11:42 42.54091 -83.09593 5012 ft 215 kts 212°
2026-05-07 11:43 42.52775 -83.10568 5012 ft 216 kts 212°
2026-05-07 11:43 42.51459 -83.11545 5019 ft 216 kts 212°
2026-05-07 11:43 42.50144 -83.12523 5009 ft 216 kts 212°
2026-05-07 11:43 42.48829 -83.13501 5005 ft 216 kts 212°
2026-05-07 11:44 42.47515 -83.14479 5006 ft 216 kts 212°
2026-05-07 11:44 42.46198 -83.15458 5008 ft 216 kts 212°
2026-05-07 11:44 42.44867 -83.16447 5009 ft 216 kts 213°
2026-05-07 11:44 42.43564 -83.17416 5008 ft 217 kts 213°
2026-05-07 11:45 42.42259 -83.18385 5028 ft 208 kts 212°
2026-05-07 11:45 42.40994 -83.19325 4961 ft 207 kts 212°
2026-05-07 11:45 42.39736 -83.20259 4737 ft 205 kts 212°
2026-05-07 11:45 42.38491 -83.21183 4468 ft 204 kts 212°
2026-05-07 11:46 42.37648 -83.21808 4275 ft 204 kts 212°
2026-05-07 11:46 42.36403 -83.22732 3988 ft 204 kts 212°
2026-05-07 11:46 42.35185 -83.23634 3713 ft 200 kts 212°
2026-05-07 11:46 42.33997 -83.24513 3463 ft 190 kts 212°
2026-05-07 11:47 42.32853 -83.25360 3190 ft 186 kts 212°
2026-05-07 11:47 42.31725 -83.26196 2932 ft 185 kts 212°
2026-05-07 11:47 42.30605 -83.27025 2670 ft 180 kts 212°
2026-05-07 11:47 42.29541 -83.27811 2450 ft 170 kts 212°
2026-05-07 11:48 42.28520 -83.28566 2208 ft 166 kts 212°
2026-05-07 11:48 42.27513 -83.29311 1968 ft 165 kts 212°
2026-05-07 11:48 42.26549 -83.30021 1754 ft 151 kts 212°
2026-05-07 11:48 42.25657 -83.30680 1523 ft 143 kts 212°
2026-05-07 11:49 42.24799 -83.31315 1328 ft 139 kts 211°
2026-05-07 11:49 42.23952 -83.31938 1136 ft 137 kts 210°
2026-05-07 11:49 42.23119 -83.32555 950 ft 136 kts 209°
2026-05-07 11:49 42.22290 -83.33167 778 ft 136 kts 208°
2026-05-07 11:50 42.21471 -83.33774 660 ft 130 kts 208°
2026-05-07 11:50 42.20816 -83.34256 646 ft 69 kts 208°
2026-05-07 11:50 42.20647 -83.34411 647 ft 16 kts 236°
2026-05-07 11:50 42.20596 -83.34511 648 ft 11 kts 233°
2026-05-07 11:51 42.20553 -83.34598 649 ft 11 kts 238°
2026-05-07 11:51 42.20497 -83.34719 650 ft 21 kts 237°
2026-05-07 11:51 42.20432 -83.34793 649 ft 11 kts 208°
2026-05-07 11:51 42.20365 -83.34841 648 ft 11 kts 207°
2026-05-07 11:52 42.20296 -83.34891 648 ft 12 kts 208°
2026-05-07 11:52 42.20208 -83.34956 648 ft 16 kts 208°
2026-05-07 11:52 42.20179 -83.35067 648 ft 13 kts 267°
2026-05-07 11:52 42.20203 -83.35155 648 ft 10 kts 327°
2026-05-07 11:53 42.20287 -83.35125 648 ft 15 kts 36°
2026-05-07 11:53 42.20379 -83.35056 649 ft 11 kts 27°
2026-05-07 11:53 42.20452 -83.35009 649 ft 12 kts 13°
2026-05-07 11:53 42.20531 -83.35014 648 ft 11 kts
2026-05-07 11:54 42.20603 -83.34969 648 ft 12 kts 30°
2026-05-07 11:54 42.20676 -83.34918 648 ft 12 kts 19°
2026-05-07 11:54 42.20741 -83.34973 647 ft 15 kts 297°
2026-05-07 11:54 42.20798 -83.35116 645 ft 16 kts 298°
2026-05-07 11:55 42.20858 -83.35219 646 ft 14 kts 343°
2026-05-07 11:55 42.20982 -83.35146 646 ft 23 kts 28°
2026-05-07 11:55 42.21108 -83.35054 646 ft 20 kts 28°
2026-05-07 11:55 42.21232 -83.34963 646 ft 15 kts 28°
2026-05-07 11:56 42.21308 -83.34934 648 ft 12 kts 344°
2026-05-07 11:56 42.21420 -83.35021 647 ft 20 kts 328°
2026-05-07 11:56 42.21515 -83.35100 646 ft 14 kts 328°
2026-05-07 11:56 42.21556 -83.35176 646 ft 9 kts 263°
2026-05-07 11:57 42.21508 -83.35213 647 ft 9 kts 181°
2026-05-07 11:57 42.21426 -83.35236 646 ft 16 kts 208°
2026-05-07 11:57 42.21336 -83.35294 646 ft 12 kts 204°
2026-05-07 11:57 42.21260 -83.35345 646 ft 12 kts 208°
2026-05-07 11:58 42.21192 -83.35395 646 ft 7 kts 209°
2026-05-07 11:58 42.21171 -83.35436 646 ft 4 kts 265°
2026-05-07 11:58 42.21177 -83.35459 649 ft 2 kts 297°
2026-05-07 11:58 42.21180 -83.35467 648 ft 0 kts 297°